Location: Fountain Hills
(33.6120°N, 111.7170°W)
Time: 02:29:21
(UTC-07:00)

Hamsat - Visible Passes

Search period start: 25 October 2014 00:00
Search period end: 04 November 2014 00:00
Orbit: 592 x 629 km, 97.6° (Epoch: 24 October)

Date Brightness Start Highest point End Pass type
(mag) Time Alt. Az. Time Alt. Az. Time Alt. Az.
25 Oct ? 05:04:22 10° E 05:05:19 11° E 05:06:15 10° ESE visible
26 Oct ? 05:17:04 10° NE 05:19:44 16° E 05:22:24 10° SE visible
27 Oct ? 05:30:41 10° NE 05:34:07 24° E 05:37:34 10° SSE visible
27 Oct ? 17:55:02 10° S 17:59:07 49° W 18:03:11 10° NNW visible
28 Oct ? 05:44:34 10° NNE 05:48:28 36° E 05:52:23 10° SSE visible
28 Oct ? 18:09:40 10° SSW 18:13:26 32° W 18:17:13 10° NNW visible
29 Oct ? 05:58:38 10° NNE 06:02:47 55° E 06:06:57 10° S visible
29 Oct ? 18:24:32 10° SSW 18:27:47 22° W 18:31:02 10° NW visible
30 Oct ? 06:12:50 10° NNE 06:17:04 85° ESE 06:21:20 10° S visible
30 Oct ? 18:39:48 10° SW 18:42:09 15° W 18:44:30 10° WNW visible
01 Nov ? 05:07:36 10° ENE 05:09:28 13° E 05:11:20 10° ESE visible
02 Nov ? 05:20:47 10° NE 05:23:49 19° E 05:26:52 10° SE visible
03 Nov ? 05:34:29 10° NE 05:38:09 28° E 05:41:49 10° SSE visible
03 Nov ? 17:59:07 10° S 18:03:05 42° W 18:07:03 10° NNW visible
